Epoch = 2008 May 14.0 TT
T = 2008 May 18.5222 TT Peri. = 29.8348
e = 0.261149 Node = 100.5697 2000.0
q = 4.214478 AU Incl. = 16.4959
a = 5.704097 AU n = 0.0723475 P = 13.62 years
星図
光度変化
m1 = -14 + 5 logΔ + 45 log r(t + 600)
軌道要素は Dr. Brian G. Marsden の計算によるもので、
IAUC 8613
に掲載されたものです。
星図は StellaNavigator Ver.2.0 for Windows
(アストロアーツ
編著 / アスキー出版局刊) で作成したものです。
光度グラフはComet for
Windowsで作成したものです。
Copyright(C) Seiichi Yoshida (comet@aerith.net). All rights reserved.